Location: Castle Hill Houses
(40.8186°N, 73.8497°W)
Time: 02:06:34
(UTC+00:00)

AQUARIUS - Pass Details

Date: 26 January 2020
Orbit: 651 x 652 km, 98.0° (Epoch: 22 February)

Event Time Altitude Azimuth Distance (km) Brightness Sun altitude
Rises 11:35:50 0° 8° (N) 2,980 7.5 -7.1°
Reaches altitude 10° 11:38:05 10° 5° (N) 2,065 6.6 -6.7°
Maximum altitude 11:42:31 61° 286° (WNW) 744 4.2 -5.9°
Drops below altitude 10° 11:46:55 10° 207° (SSW) 2,049 6.7 -5.1°
Sets 11:49:08 0° 203° (SSW) 2,956 7.5 -4.7°
